Location: Newark
(42.8481°N, 0.4872°E)
Time: 09:20:52
(UTC+00:00)

A-11 Canister half - Pass Details

Date: 01 November 2020
Orbit: 1516 x 1684 km, 47.2° (Epoch: 04 December)

Event Time Altitude Azimuth Distance (km) Brightness Sun altitude
Rises 16:58:41 0° 194° (SSW) 4,910 12.1 -2.3°
Reaches altitude 10° 17:02:27 10° 183° (S) 3,933 11.4 -3.0°
Maximum altitude 17:10:29 28° 130° (SE) 2,782 10.1 -4.4°
Drops below altitude 10° 17:18:28 10° 77° (ENE) 3,925 10.4 -5.8°
Enters shadow 17:19:42 - 73° (ENE) 4,231 10.6 -6.0°
